• In Spain
  • List of Countries
  • For 7 days
  • Water Temperature
  • Satellite Maps
  • Weather Map
  • Weather Widgets
  • user-avatar
    Login

    Hourly Weather Ivanovskie Dvoriki

    Today, 22 July, Sunday

    Time Temperature Precipitation Wind Pressure Humidity
    00:00 +19°C° 0 mm 3 mps 732 mmHg 95%
    01:00 +19°C° 0 mm 3 mps 732 mmHg 96%
    02:00 +18°C° 0 mm 3 mps 732 mmHg 97%
    03:00 +18°C° 0 mm 2 mps 732 mmHg 98%
    04:00 +18°C° 0.2 mm 3 mps 732 mmHg 97%
    05:00 +19°C° 0.2 mm 4 mps 732 mmHg 97%
    06:00 +19°C° 0.2 mm 4 mps 732 mmHg 97%
    07:00 +19°C° 0.2 mm 4 mps 732 mmHg 96%
    08:00 +19°C° 0.2 mm 5 mps 732 mmHg 95%
    09:00 +20°C° 0.2 mm 5 mps 732 mmHg 94%
    10:00 +20°C° 0.1 mm 5 mps 732 mmHg 93%
    11:00 +20°C° 0.1 mm 5 mps 732 mmHg 92%
    12:00 +20°C° 0.1 mm 5 mps 732 mmHg 91%
    13:00 +21°C° 0.1 mm 5 mps 732 mmHg 90%
    14:00 +21°C° 0.1 mm 5 mps 732 mmHg 88%
    15:00 +22°C° 0.1 mm 5 mps 732 mmHg 87%
    16:00 +22°C° 0.3 mm 5 mps 732 mmHg 86%
    17:00 +22°C° 0.3 mm 5 mps 732 mmHg 86%
    18:00 +22°C° 0.3 mm 5 mps 732 mmHg 86%
    19:00 +21°C° 0.3 mm 5 mps 732 mmHg 88%
    20:00 +21°C° 0.3 mm 5 mps 732 mmHg 91%
    21:00 +20°C° 0.3 mm 5 mps 732 mmHg 93%
    22:00 +19°C° 0.5 mm 5 mps 732 mmHg 94%
    23:00 +19°C° 0.5 mm 5 mps 732 mmHg 95%

    Tomorrow, 23 July, Monday

    Time Temperature Precipitation Wind Pressure Humidity
    00:00 +19°C° 0.5 mm 5 mps 732 mmHg 95%
    01:00 +19°C° 0 mm 5 mps 732 mmHg 95%
    02:00 +19°C° 0 mm 5 mps 732 mmHg 95%
    03:00 +19°C° 0 mm 5 mps 732 mmHg 95%
    04:00 +17°C° 0 mm 5 mps 732 mmHg 95%
    05:00 +17°C° 0 mm 5 mps 732 mmHg 95%
    06:00 +17°C° 0 mm 5 mps 732 mmHg 95%
    07:00 +17°C° 0.1 mm 5 mps 732 mmHg 94%
    08:00 +17°C° 0.1 mm 5 mps 732 mmHg 93%
    09:00 +17°C° 0.1 mm 5 mps 732 mmHg 93%
    10:00 +17°C° 0.2 mm 5 mps 732 mmHg 92%
    11:00 +17°C° 0.2 mm 5 mps 733 mmHg 91%
    12:00 +19°C° 0.2 mm 5 mps 733 mmHg 90%
    13:00 +19°C° 0.2 mm 5 mps 733 mmHg 90%
    14:00 +20°C° 0.2 mm 5 mps 733 mmHg 89%
    15:00 +20°C° 0.2 mm 5 mps 733 mmHg 88%
    16:00 +20°C° 0.1 mm 5 mps 733 mmHg 88%
    17:00 +21°C° 0.1 mm 5 mps 733 mmHg 89%
    18:00 +21°C° 0.1 mm 5 mps 733 mmHg 89%
    19:00 +21°C° 0.8 mm 5 mps 733 mmHg 91%
    20:00 +20°C° 0.8 mm 4 mps 733 mmHg 93%
    21:00 +20°C° 0.8 mm 4 mps 733 mmHg 95%
    22:00 +20°C° 0.9 mm 4 mps 733 mmHg 96%
    23:00 +20°C° 0.9 mm 4 mps 733 mmHg 96%

    Day after tomorrow, 24 July, Tuesday

    Time Temperature Precipitation Wind Pressure Humidity
    00:00 +20°C° 0.9 mm 4 mps 733 mmHg 97%
    01:00 +19°C° 0 mm 4 mps 733 mmHg 97%
    02:00 +19°C° 0 mm 3 mps 733 mmHg 97%
    03:00 +19°C° 0 mm 3 mps 733 mmHg 97%
    04:00 +19°C° 0 mm 3 mps 733 mmHg 97%
    05:00 +19°C° 0 mm 3 mps 734 mmHg 97%
    06:00 +19°C° 0 mm 3 mps 734 mmHg 96%
    07:00 +20°C° 0 mm 3 mps 734 mmHg 93%
    08:00 +22°C° 0 mm 3 mps 735 mmHg 89%
    09:00 +24°C° 0 mm 3 mps 735 mmHg 86%
    10:00 +25°C° 0.6 mm 4 mps 735 mmHg 82%
    11:00 +26°C° 0.6 mm 4 mps 735 mmHg 77%
    12:00 +27°C° 0.6 mm 4 mps 735 mmHg 73%
    13:00 +27°C° 0.6 mm 4 mps 736 mmHg 74%
    14:00 +26°C° 0.6 mm 4 mps 736 mmHg 76%
    15:00 +26°C° 0.6 mm 4 mps 736 mmHg 78%
    16:00 +25°C° 1.3 mm 4 mps 736 mmHg 81%
    17:00 +23°C° 1.3 mm 4 mps 736 mmHg 85%
    18:00 +22°C° 1.3 mm 4 mps 737 mmHg 89%
    19:00 +21°C° 0.6 mm 4 mps 737 mmHg 91%
    20:00 +20°C° 0.6 mm 4 mps 737 mmHg 93%
    21:00 +20°C° 0.6 mm 4 mps 737 mmHg 95%
    22:00 +19°C° 0.1 mm 4 mps 737 mmHg 94%
    23:00 +19°C° 0.1 mm 4 mps 737 mmHg 94%

    25 July, Wednesday

    Time Temperature Precipitation Wind Pressure Humidity
    00:00 +19°C° 0.1 mm 3 mps 738 mmHg 94%
    01:00 +19°C° 0.1 mm 3 mps 737 mmHg 93%
    02:00 +18°C° 0.1 mm 3 mps 737 mmHg 92%
    03:00 +18°C° 0.1 mm 3 mps 737 mmHg 91%
    04:00 +18°C° 0.1 mm 4 mps 737 mmHg 89%
    05:00 +17°C° 0.1 mm 5 mps 737 mmHg 88%
    06:00 +17°C° 0.1 mm 6 mps 737 mmHg 86%
    07:00 +17°C° 0.1 mm 6 mps 737 mmHg 84%
    08:00 +19°C° 0.1 mm 6 mps 737 mmHg 81%
    09:00 +19°C° 0.1 mm 6 mps 738 mmHg 78%
    10:00 +20°C° 0.1 mm 6 mps 738 mmHg 75%
    11:00 +21°C° 0.1 mm 7 mps 738 mmHg 72%
    12:00 +22°C° 0.1 mm 7 mps 738 mmHg 68%
    13:00 +23°C° 0 mm 7 mps 738 mmHg 68%
    14:00 +24°C° 0 mm 7 mps 739 mmHg 67%
    15:00 +26°C° 0 mm 7 mps 739 mmHg 67%
    16:00 +24°C° 0 mm 6 mps 739 mmHg 69%
    17:00 +24°C° 0 mm 6 mps 739 mmHg 71%
    18:00 +25°C° 0 mm 5 mps 739 mmHg 73%
    19:00 +23°C° 0 mm 5 mps 739 mmHg 75%
    20:00 +21°C° 0 mm 4 mps 739 mmHg 77%
    21:00 +20°C° 0 mm 4 mps 739 mmHg 79%
    22:00 +20°C° 0 mm 4 mps 739 mmHg 78%
    23:00 +20°C° 0 mm 4 mps 739 mmHg 78%

    26 July, Thursday

    Time Temperature Precipitation Wind Pressure Humidity
    00:00 +20°C° 0 mm 4 mps 740 mmHg 78%
    01:00 +19°C° 0 mm 4 mps 740 mmHg 79%
    02:00 +19°C° 0 mm 4 mps 740 mmHg 80%
    03:00 +18°C° 0 mm 4 mps 740 mmHg 81%
    04:00 +18°C° 0 mm 4 mps 740 mmHg 82%
    05:00 +18°C° 0 mm 4 mps 740 mmHg 83%
    06:00 +18°C° 0 mm 4 mps 740 mmHg 84%
    07:00 +19°C° 0 mm 5 mps 740 mmHg 81%
    08:00 +21°C° 0 mm 5 mps 740 mmHg 78%
    09:00 +22°C° 0 mm 6 mps 741 mmHg 75%
    10:00 +23°C° 0 mm 5 mps 741 mmHg 74%
    11:00 +23°C° 0 mm 5 mps 741 mmHg 74%
    12:00 +25°C° 0 mm 5 mps 741 mmHg 73%
    13:00 +25°C° 0 mm 5 mps 741 mmHg 73%
    14:00 +26°C° 0 mm 5 mps 741 mmHg 72%
    15:00 +27°C° 0 mm 5 mps 741 mmHg 72%
    16:00 +26°C° 0 mm 5 mps 741 mmHg 73%
    17:00 +26°C° 0 mm 4 mps 741 mmHg 75%
    18:00 +26°C° 0 mm 4 mps 741 mmHg 76%
    19:00 +25°C° 0.2 mm 4 mps 741 mmHg 77%
    20:00 +23°C° 0.2 mm 4 mps 741 mmHg 79%
    21:00 +22°C° 0.2 mm 4 mps 741 mmHg 80%
    22:00 +22°C° 0.4 mm 4 mps 742 mmHg 82%
    23:00 +21°C° 0.4 mm 4 mps 742 mmHg 85%

    27 July, Friday

    Time Temperature Precipitation Wind Pressure Humidity
    00:00 +21°C° 0.4 mm 3 mps 742 mmHg 88%
    01:00 +21°C° 0.1 mm 3 mps 742 mmHg 89%
    02:00 +20°C° 0.1 mm 3 mps 742 mmHg 90%
    03:00 +20°C° 0.1 mm 3 mps 742 mmHg 91%
    04:00 +20°C° 0.1 mm 3 mps 743 mmHg 90%
    05:00 +19°C° 0.1 mm 3 mps 743 mmHg 90%
    06:00 +19°C° 0.1 mm 3 mps 743 mmHg 89%
    07:00 +21°C° 0 mm 4 mps 743 mmHg 85%
    08:00 +22°C° 0 mm 4 mps 743 mmHg 80%
    09:00 +25°C° 0 mm 5 mps 743 mmHg 76%
    10:00 +26°C° 0 mm 5 mps 743 mmHg 71%
    11:00 +27°C° 0 mm 5 mps 743 mmHg 66%
    12:00 +28°C° 0 mm 6 mps 743 mmHg 61%
    13:00 +28°C° 0 mm 5 mps 743 mmHg 60%
    14:00 +28°C° 0 mm 5 mps 743 mmHg 60%
    15:00 +28°C° 0 mm 5 mps 743 mmHg 59%
    16:00 +28°C° 0 mm 5 mps 743 mmHg 64%
    17:00 +28°C° 0 mm 4 mps 743 mmHg 68%
    18:00 +27°C° 0 mm 3 mps 743 mmHg 72%
    19:00 +26°C° 0 mm 3 mps 743 mmHg 75%
    20:00 +24°C° 0 mm 3 mps 743 mmHg 78%
    21:00 +22°C° 0 mm 3 mps 743 mmHg 80%
    22:00 +21°C° 0 mm 3 mps 743 mmHg 81%
    23:00 +21°C° 0 mm 3 mps 743 mmHg 82%
    Show more